Epoch 2023 Feb. 25.0 TT = JDT 2460000.5 T 2023 Apr. 28.80809 TT Rudenko q 2.6869477 (2000.0) P Q z +0.0231751 Peri. 247.15597 +0.56507791 +0.78628862 +/-0.0000118 Node 59.65275 -0.61013164 +0.60212815 e 0.9377296 Incl. 16.83092 -0.55536145 +0.13853481 >From 63 observations 2022 May 9-2023 Apr. 24, mean residual 0".3.
m1 = 8.0 + 5 log d + 16.0 log r